Current Version              Previous Version:    01  02  03  04  05  06  07  08  09  10  11  12  13  14  15  16  17  18  19  20  21  22  23  24  25  26  27  28  29  30  
   31  32  33  34  35  36  37  38  39  40  41  42  43  44  45  46  47  48  49  50  51  52  53  54  55  56  57  58  59  60  

[Printable]
607
ASUS44 KEWX 181110
RWRTX
SOUTH TEXAS REGIONAL WEATHER ROUNDUP
NATIONAL WEATHER SERVICE AUSTIN/SAN ANTONIO TX
600 AM CDT FRI APR 18 2014

NOTE: "FAIR" INDICATED FEW OR NO CLOUDS BELOW 12,000 FEET WITH NO
SIGNIFICANT WEATHER AND/OR OBSTRUCTIONS TO VISIBILITY.

* - THESE STATIONS ARE NOT NWS OR FAA STATIONS...AND ARE NOT SUBJECT
    TO NWS AND FAA QUALITY CONTROL.

TXZ171-172-183>190-181200-
TEXAS HILL COUNTRY AND EDWARDS PLATEAU

CITY           SKY/WX    TMP DP  RH WIND       PRES   REMARKS
JUNCTION       CLOUDY    60  57  89 E5        30.17R
*LLANO         CLOUDY    61  59  94 CALM      30.20S
BURNET         CLOUDY    60  57  89 CALM      30.19S FOG
*HORSESHOE BAY CLOUDY    60  60 100 CALM      30.16R FOG
*KERRVILLE     MOCLDY    59  57  94 CALM      30.17S
*FREDERICKSBRG CLOUDY    58  56  92 CALM      30.17S
*ROCKSPRINGS   CLOUDY    61  55  82 E5        30.18S
*BOERNE STAGE  CLOUDY    59  55  88 CALM      30.18R
*CASTROVILLE   CLOUDY    58  58  98 CALM      30.17S FOG
HONDO          CLOUDY    63  59  87 NE5       30.17S
*UVALDE        DRIZZLE   62  60  96 NE5       30.16R
DEL RIO        CLOUDY    64  60  87 E7        30.13R
LAUGHLIN AFB   CLOUDY    63  62  96 E8        30.14R
CARRIZO SPRGS  CLOUDY    63  59  88 E6        30.13R
$$

TXZ173-191>194-202-209-217>225-228-181200-
CENTRAL AND SOUTH CENTRAL TEXAS

CITY           SKY/WX    TMP DP  RH WIND       PRES   REMARKS
GEORGETOWN     CLOUDY    61  57  88 CALM      30.17S
AUSTIN/BERGSTM CLOUDY    60  59  96 CALM      30.16R FOG
AUSTIN/MABRY   CLOUDY    60  58  92 CALM      30.17S FOG
*AUSTIN/EXEC   CLOUDY    59  59 100 NW5       30.17R FOG
*LAGO VISTA    DRZL/FOG  60  59  95 E3        30.17S VSB 1/4
SAN MARCOS     CLOUDY    59  55  88 CALM      30.18R
NEW BRAUNFELS  CLOUDY    61  61 100 CALM      30.15R FOG
RANDOLPH AFB   CLOUDY    61  59  94 N3        30.16S FOG
PT SAN ANTONIO CLOUDY    62  60  94 N3        30.14S
SAN ANTONIO    CLOUDY    61  59  93 N5        30.16R FOG
STINSON FIELD  CLOUDY    63  61  93 CALM      30.14S FOG
*PLEASANTON    HVY RAIN  61  59  91 NE3       30.16R
*LA GRANGE     CLOUDY    61  60  98 CALM      30.14S FOG
*GIDDINGS      CLOUDY    59  58  97 CALM      30.18F FOG
*GONZALES      CLOUDY    60  59  98 CALM      30.15R FOG
$$

TXZ163>164-176>182-195>201-210>213-226-227-235-181200-
SOUTHEAST TEXAS

CITY           SKY/WX    TMP DP  RH WIND       PRES   REMARKS
COLLEGE STN    CLOUDY    60  59  96 N3        30.15S FOG
*BRYAN         CLOUDY    60  58  96 CALM      30.16R
*CALDWELL      CLOUDY    57  57 100 CALM      30.18S FOG
*CROCKETT      CLOUDY    55  55 100 NE3       30.20R
*BRENHAM         N/A     58  57  96 NE3       30.16R FOG
HUNTSVILLE     CLOUDY    58  54  86 CALM      30.16R
CONROE         CLOUDY    56  55  97 CALM      30.16R
HOUSTON BUSH   CLOUDY    60  54  80 N6        30.14S
HOUSTON HOBBY  MOCLDY    60  54  80 N5        30.13F
*HOUSTON SW AP CLOUDY    59  54  84 CALM      30.14S
PEARLAND       CLOUDY    60  55  83 NE3       30.15R
HOUSTON HOOKS  CLOUDY    60  55  83 N3        30.15S
ELLINGTON FLD  MOCLDY    61  57  88 N3        30.14S
SUGAR LAND     CLOUDY    60  55  83 CALM      30.14S
*HOUSTON EXEC  CLOUDY    59  59 100 CALM      30.16S FOG
*CLEVELAND MUN CLOUDY    57  55  91 CALM      30.16R
*WHARTON       MOCLDY    59  56  91 N5        30.15R
$$

TXZ214>216-236>238-181200-
THE UPPER TEXAS COAST

CITY           SKY/WX    TMP DP  RH WIND       PRES   REMARKS
*ORANGE        CLEAR     52  52  99 CALM      30.14R
PORT ARTHUR    MOCLDY    55  52  89 N6        30.13R
GALVESTON      MOCLDY    59  56  89 NE8       30.13S
ANGLETON       CLOUDY    58  55  90 N5        30.14
*BAY CITY      CLOUDY    61  58  90 NE5       30.13S
PALACIOS       CLOUDY    61  56  83 N9        30.13R
$$

TXZ229>234-239>247-181200-
TEXAS COASTAL BEND AND RIO GRANDE PLAINS

CITY           SKY/WX    TMP DP  RH WIND       PRES   REMARKS
VICTORIA       CLOUDY    62  58  86 N7        30.14R
*BEEVILLE      CLOUDY    62  61  98 N5        30.13R
ROCKPORT       CLOUDY    63  60  90 NE10      30.11S
*PORT ARANSAS  CLOUDY    64  64  99 NE9       30.10S
*PORT LAVACA   CLOUDY    60  57  89 N7        30.13R
*INGLESIDE     CLOUDY    65  63  91 N9        30.11R
CORPUS CHRISTI CLOUDY    65  61  87 NE10      30.11R
CORPUS NAS     CLOUDY    66  63  90 N10       30.10R
*ROBSTOWN      CLOUDY    64  63  94 N8        30.11S
ALICE          CLOUDY    63  62  97 NE9       30.11R
KINGSVILLE NAS CLOUDY    65  64  97 N7        30.10S
COTULLA        CLOUDY    64  59  83 NE6       30.14R
*FAITH RANCH   CLOUDY    64  61  88 E8        30.13S
LAREDO         CLOUDY    66  62  87 E8        30.14R
$$

TXZ248>255-181200-
DEEP SOUTH TEXAS

CITY           SKY/WX    TMP DP  RH WIND       PRES   REMARKS
BROWNSVILLE    CLOUDY    68  66  93 N3        30.06R
PORT ISABEL    CLOUDY    69  66  90 N7        30.06R
*SOUTH PADRE   LGT RAIN  68  66  94 CALM      30.05S
HARLINGEN      CLOUDY    67  65  93 N6        30.06R
*HEBBRONVILLE  CLOUDY    63  62  96 NE6       30.12R FOG
MCALLEN        CLOUDY    68  66  93 NE5       30.08R
*WESLACO       CLOUDY    67  64  91 NE5       30.07R
FALFURRIAS     CLOUDY    61  59  94 N6        30.10R
EDINBURG       CLOUDY    68  65  90 N6        30.08S
*ZAPATA        CLOUDY    66  63  90 NE3       30.10R
$$

TXZ213>215-236>238-242>244-246-247-251-254-255-181200-
CMAN STATIONS

STATION/POSITION TIME  TEMP    WIND        PRES    WAVE
                       AIR SEA DIR/SP/G            HT/PER
                 (UTC) (F)     (DEG/KT/KT) (MB)    (FT/S)
SABINE PASS      1100   58 63   10/  8/  9 1019.6
SEA RIM ST PARK  1000   54     350/  6/  6 1020.2
NORTH JETTY/GLS  1100   59 67   50/ 10/ 11   N/A
EAGLE POINT      1100   61 58   60/  9/ 10 1019.9
MORGANS POINT    1100   60 62  360/  6/  8 1021.8
MISSION/ARANSAS  1000   63      30/ 10     1020.0
PORT O`CONNOR    1100           10/ 11/ 12   N/A
PORT ARANSAS     1000   65 66  360/  9/ 10 1019.3
MALAQUITE BEACH  1100   66 67   20/ 13/ 16 1018.3
BAFFIN BAY       1100   66 65   30/ 10/ 12 1018.8
PORT ISABEL      1100   67 66   10/  6/  9 1017.9
$$

GMZ080-GMZ150>470-181200-
OFFSHORE BUOY REPORTS

STATION/POSITION TIME  TEMP    WIND        PRES    WAVE
                       AIR SEA DIR/SP/G            HT/PER
                 (UTC) (F)     (DEG/KT/KT) (MB)    (FT/S)
20 E GALVESTON   1100   61 65   10/ 12/ 14 1019.5    3/ 7
35 NE PT MANSFLD 1100   69 68   40/ 10/ 12 1018.1    6/ 8
$$